User: anonymous   Login
Location: *
(41.7492°S, 135.4150°W)
Time: 13:46:20
(UTC+00:00)
Language:

ZACube-1 - Orbit

View from above orbital plane
View from above orbital plane
View from above satellite
View from above satellite

Ground track
Ground track

The orbit data is extracted from the following two-line orbital elements,

1 39417U 13066B   22177.14253203  .00001783  00000-0  22265-3 0  9998
2 39417  97.6366 148.2468 0058372  17.8052 342.5189 14.82374483464419
Epoch (UTC): 26 June 2022 03:25:14
Eccentricity: 0.0058372
inclination: 97.6366°
perigee height: 581 km
apogee height: 663 km
right ascension of ascending node: 148.2468°
argument of perigee: 17.8052°
revolutions per day: 14.82374483
mean anomaly at epoch: 342.5189°
orbit number at epoch: 46441

The dashed part of the orbit path shows where the satellite is in the earth's shadow,  

DLR